Time,TemperatureF,DewpointF,PressureIn,WindDirection,WindDirectionDegrees,WindSpeedMPH,WindSpeedGustMPH,Humidity,HourlyPrecipIn,Conditions,Clouds,dailyrainin,SoftwareType,DateUTC
2013-03-10 00:01:00,39.9,35.2,30.04,NNE,29,2.0,6.0,83,0.00,,,0.00,WUHU216DAVISVP2,2013-03-10 05:01:00,
2013-03-10 00:06:00,39.8,35.1,30.04,NE,44,1.0,6.0,83,0.00,,,0.00,WUHU216DAVISVP2,2013-03-10 05:06:00,
2013-03-10 00:11:00,39.7,35.0,30.04,NE,51,2.0,6.0,83,0.00,,,0.00,WUHU216DAVISVP2,2013-03-10 05:11:00,
2013-03-10 00:16:00,39.6,35.2,30.04,NE,52,3.0,8.0,84,0.00,,,0.00,WUHU216DAVISVP2,2013-03-10 05:16:00,
2013-03-10 00:21:00,39.5,34.8,30.04,NE,34,0.0,8.0,83,0.00,,,0.00,WUHU216DAVISVP2,2013-03-10 05:21:00,
2013-03-10 00:26:00,39.1,34.7,30.04,NE,55,0.0,8.0,84,0.00,,,0.00,WUHU216DAVISVP2,2013-03-10 05:26:00,
2013-03-10 00:31:00,38.7,34.6,30.04,NE,55,2.0,8.0,85,0.00,,,0.00,WUHU216DAVISVP2,2013-03-10 05:31:00,
2013-03-10 00:37:00,38.3,34.5,30.03,NE,53,4.0,6.0,86,0.00,,,0.00,WUHU216DAVISVP2,2013-03-10 05:37:00,
2013-03-10 00:42:00,38.1,34.5,30.03,ENE,57,5.0,8.0,87,0.00,,,0.00,WUHU216DAVISVP2,2013-03-10 05:42:00,
2013-03-10 00:47:00,38.4,34.8,30.02,NE,53,7.0,9.0,87,0.00,,,0.00,WUHU216DAVISVP2,2013-03-10 05:47:00,
2013-03-10 00:52:00,38.5,34.9,30.03,NE,46,0.0,9.0,87,0.00,,,0.00,WUHU216DAVISVP2,2013-03-10 05:52:00,
2013-03-10 00:57:00,38.4,34.6,30.02,ENE,57,4.0,9.0,86,0.00,,,0.00,WUHU216DAVISVP2,2013-03-10 05:57:00,
2013-03-10 01:02:00,38.3,34.7,30.02,ENE,71,5.0,9.0,87,0.00,,,0.00,WUHU216DAVISVP2,2013-03-10 06:02:00,
2013-03-10 01:07:00,38.3,34.7,30.03,East,79,1.0,8.0,87,0.00,,,0.00,WUHU216DAVISVP2,2013-03-10 06:07:00,
2013-03-10 01:12:00,38.1,34.5,30.03,ENE,61,3.0,8.0,87,0.00,,,0.00,WUHU216DAVISVP2,2013-03-10 06:12:00,
2013-03-10 01:17:00,37.9,34.3,30.02,ENE,66,3.0,8.0,87,0.00,,,0.00,WUHU216DAVISVP2,2013-03-10 06:17:00,
2013-03-10 01:22:00,37.4,33.9,30.02,ENE,62,0.0,6.0,87,0.00,,,0.00,WUHU216DAVISVP2,2013-03-10 06:22:00,
2013-03-10 01:27:00,37.2,33.9,30.02,ENE,62,0.0,6.0,88,0.00,,,0.00,WUHU216DAVISVP2,2013-03-10 06:27:00,
2013-03-10 01:32:00,36.9,33.6,30.02,NE,55,1.0,6.0,88,0.00,,,0.00,WUHU216DAVISVP2,2013-03-10 06:32:00,
2013-03-10 01:37:00,36.8,33.8,30.02,ENE,66,1.0,5.0,89,0.00,,,0.00,WUHU216DAVISVP2,2013-03-10 06:37:00,
2013-03-10 01:42:00,36.7,33.7,30.02,ENE,66,0.0,5.0,89,0.00,,,0.00,WUHU216DAVISVP2,2013-03-10 06:42:00,
2013-03-10 01:47:00,36.7,33.7,30.02,ENE,57,1.0,6.0,89,0.00,,,0.00,WUHU216DAVISVP2,2013-03-10 06:47:00,
2013-03-10 01:52:00,36.8,33.9,30.02,ENE,66,0.0,6.0,89,0.00,,,0.00,WUHU216DAVISVP2,2013-03-10 06:52:00,
2013-03-10 01:57:00,36.7,33.8,30.01,NE,53,1.0,6.0,89,0.00,,,0.00,WUHU216DAVISVP2,2013-03-10 06:57:00,
2013-03-10 03:03:00,36.6,33.6,30.01,ENE,63,1.0,6.0,89,0.00,,,0.00,WUHU216DAVISVP2,2013-03-10 07:03:00,
2013-03-10 03:08:00,36.3,33.3,30.01,ENE,59,0.0,6.0,89,0.00,,,0.00,WUHU216DAVISVP2,2013-03-10 07:08:00,
2013-03-10 03:13:00,36.2,33.5,30.01,ENE,59,0.0,6.0,90,0.00,,,0.00,WUHU216DAVISVP2,2013-03-10 07:13:00,
2013-03-10 03:18:00,35.9,33.2,30.01,ENE,59,0.0,6.0,90,0.00,,,0.00,WUHU216DAVISVP2,2013-03-10 07:18:00,
2013-03-10 03:23:00,35.5,32.8,30.01,ENE,59,0.0,6.0,90,0.00,,,0.00,WUHU216DAVISVP2,2013-03-10 07:23:00,
2013-03-10 03:28:00,35.5,33.1,30.01,ENE,78,0.0,5.0,91,0.00,,,0.00,WUHU216DAVISVP2,2013-03-10 07:28:00,
2013-03-10 03:33:00,35.3,32.9,30.01,ENE,78,0.0,5.0,91,0.00,,,0.00,WUHU216DAVISVP2,2013-03-10 07:33:00,
2013-03-10 03:38:00,35.3,32.9,30.00,ENE,78,0.0,5.0,91,0.00,,,0.00,WUHU216DAVISVP2,2013-03-10 07:38:00,
2013-03-10 03:43:00,35.2,32.8,30.00,ENE,78,0.0,5.0,91,0.00,,,0.00,WUHU216DAVISVP2,2013-03-10 07:43:00,
2013-03-10 03:48:00,35.2,32.8,30.00,ENE,78,0.0,4.0,91,0.00,,,0.00,WUHU216DAVISVP2,2013-03-10 07:48:00,
2013-03-10 03:53:00,35.2,33.1,30.00,ENE,78,0.0,4.0,92,0.00,,,0.00,WUHU216DAVISVP2,2013-03-10 07:53:00,
2013-03-10 03:58:00,35.2,33.1,30.00,ENE,78,0.0,4.0,92,0.00,,,0.00,WUHU216DAVISVP2,2013-03-10 07:58:00,
2013-03-10 04:03:00,35.2,33.1,30.00,ENE,78,0.0,2.0,92,0.00,,,0.00,WUHU216DAVISVP2,2013-03-10 08:03:00,
2013-03-10 04:08:00,35.2,32.8,30.00,ENE,78,0.0,1.0,91,0.00,,,0.00,WUHU216DAVISVP2,2013-03-10 08:08:00,
2013-03-10 04:13:00,35.1,33.0,29.99,ENE,78,0.0,1.0,92,0.00,,,0.00,WUHU216DAVISVP2,2013-03-10 08:13:00,
2013-03-10 04:18:00,35.1,33.0,29.99,ENE,78,0.0,1.0,92,0.00,,,0.00,WUHU216DAVISVP2,2013-03-10 08:18:00,
2013-03-10 04:23:00,35.2,33.1,29.99,ENE,78,0.0,1.0,92,0.00,,,0.00,WUHU216DAVISVP2,2013-03-10 08:23:00,
2013-03-10 04:28:00,35.2,33.1,29.99,ENE,78,0.0,1.0,92,0.00,,,0.00,WUHU216DAVISVP2,2013-03-10 08:28:00,
2013-03-10 04:34:00,35.2,33.1,29.99,ENE,78,0.0,1.0,92,0.00,,,0.00,WUHU216DAVISVP2,2013-03-10 08:34:00,
2013-03-10 04:39:00,35.1,33.0,29.98,ENE,78,0.0,2.0,92,0.00,,,0.00,WUHU216DAVISVP2,2013-03-10 08:39:00,
2013-03-10 04:44:00,35.2,33.1,29.99,ENE,78,0.0,4.0,92,0.00,,,0.00,WUHU216DAVISVP2,2013-03-10 08:44:00,
2013-03-10 04:49:00,35.4,33.3,29.98,ENE,78,0.0,4.0,92,0.00,,,0.00,WUHU216DAVISVP2,2013-03-10 08:49:00,
2013-03-10 04:54:00,35.6,33.5,29.98,ENE,78,0.0,4.0,92,0.00,,,0.00,WUHU216DAVISVP2,2013-03-10 08:54:00,
2013-03-10 04:59:00,35.7,33.6,29.99,ENE,78,0.0,4.0,92,0.00,,,0.00,WUHU216DAVISVP2,2013-03-10 08:59:00,
2013-03-10 05:04:00,35.8,33.7,29.99,ENE,78,0.0,1.0,92,0.00,,,0.00,WUHU216DAVISVP2,2013-03-10 09:04:00,
2013-03-10 05:09:00,35.9,33.8,29.98,ENE,78,0.0,1.0,92,0.00,,,0.00,WUHU216DAVISVP2,2013-03-10 09:09:00,
2013-03-10 05:14:00,36.0,33.6,29.98,ENE,78,0.0,1.0,91,0.00,,,0.00,WUHU216DAVISVP2,2013-03-10 09:14:00,
2013-03-10 05:19:00,36.0,33.6,29.99,ENE,78,0.0,2.0,91,0.00,,,0.00,WUHU216DAVISVP2,2013-03-10 09:19:00,
2013-03-10 05:24:00,36.2,33.8,29.99,ENE,78,0.0,2.0,91,0.00,,,0.00,WUHU216DAVISVP2,2013-03-10 09:24:00,
2013-03-10 05:29:00,36.2,33.8,29.99,ENE,78,0.0,2.0,91,0.00,,,0.00,WUHU216DAVISVP2,2013-03-10 09:29:00,
2013-03-10 05:34:00,36.3,33.9,29.98,ENE,78,1.0,4.0,91,0.00,,,0.00,WUHU216DAVISVP2,2013-03-10 09:34:00,
2013-03-10 05:39:00,36.4,34.0,29.98,ENE,71,0.0,5.0,91,0.00,,,0.00,WUHU216DAVISVP2,2013-03-10 09:39:00,
2013-03-10 05:44:00,37.0,34.6,29.98,East,93,4.0,6.0,91,0.00,,,0.00,WUHU216DAVISVP2,2013-03-10 09:44:00,
2013-03-10 05:49:00,37.9,35.2,29.98,East,84,7.0,7.0,90,0.00,,,0.00,WUHU216DAVISVP2,2013-03-10 09:49:00,
2013-03-10 05:55:00,38.4,35.7,29.98,ESE,112,1.0,8.0,90,0.01,,,0.01,WUHU216DAVISVP2,2013-03-10 09:55:00,
2013-03-10 06:00:00,38.6,35.9,29.98,ESE,112,0.0,8.0,90,0.01,,,0.01,WUHU216DAVISVP2,2013-03-10 10:00:00,
2013-03-10 06:05:00,38.5,35.8,29.98,ESE,112,0.0,8.0,90,0.01,,,0.01,WUHU216DAVISVP2,2013-03-10 10:05:00,
2013-03-10 06:10:00,38.6,35.9,29.98,SE,127,0.0,8.0,90,0.01,,,0.01,WUHU216DAVISVP2,2013-03-10 10:10:00,
2013-03-10 06:15:00,38.8,36.4,29.99,SE,127,0.0,2.0,91,0.01,,,0.01,WUHU216DAVISVP2,2013-03-10 10:15:00,
2013-03-10 06:20:00,39.2,36.7,29.99,SE,136,0.0,4.0,91,0.01,,,0.01,WUHU216DAVISVP2,2013-03-10 10:20:00,
2013-03-10 06:25:00,39.7,37.0,29.99,SE,128,0.0,6.0,90,0.01,,,0.01,WUHU216DAVISVP2,2013-03-10 10:25:00,
2013-03-10 06:30:00,40.1,37.1,29.99,ESE,115,0.0,6.0,89,0.01,,,0.01,WUHU216DAVISVP2,2013-03-10 10:30:00,
2013-03-10 06:35:00,40.7,37.4,29.99,SE,126,4.0,6.0,88,0.01,,,0.01,WUHU216DAVISVP2,2013-03-10 10:35:00,
2013-03-10 06:40:00,41.3,37.4,29.99,ESE,114,0.0,6.0,86,0.01,,,0.01,WUHU216DAVISVP2,2013-03-10 10:40:00,
2013-03-10 06:45:00,41.8,37.3,29.99,ESE,114,2.0,6.0,84,0.01,,,0.01,WUHU216DAVISVP2,2013-03-10 10:45:00,
2013-03-10 06:50:00,42.2,37.4,29.99,SE,126,0.0,5.0,83,0.00,,,0.01,WUHU216DAVISVP2,2013-03-10 10:50:00,
2013-03-10 06:55:00,42.5,37.4,29.99,ESE,121,1.0,5.0,82,0.00,,,0.01,WUHU216DAVISVP2,2013-03-10 10:55:00,
2013-03-10 07:00:00,42.7,37.6,29.99,ESE,111,2.0,6.0,82,0.00,,,0.01,WUHU216DAVISVP2,2013-03-10 11:00:00,
2013-03-10 07:05:00,42.9,37.5,29.99,East,92,3.0,7.0,81,0.00,,,0.01,WUHU216DAVISVP2,2013-03-10 11:05:00,
2013-03-10 07:10:00,43.1,37.4,29.99,ESE,114,4.0,8.0,80,0.00,,,0.01,WUHU216DAVISVP2,2013-03-10 11:10:00,
2013-03-10 07:16:00,43.7,37.6,29.99,ESE,113,4.0,8.0,79,0.00,,,0.01,WUHU216DAVISVP2,2013-03-10 11:16:00,
2013-03-10 07:21:00,44.0,37.3,29.99,SE,125,2.0,8.0,77,0.00,,,0.01,WUHU216DAVISVP2,2013-03-10 11:21:00,
2013-03-10 07:26:00,44.2,37.5,29.99,ESE,111,1.0,8.0,77,0.00,,,0.01,WUHU216DAVISVP2,2013-03-10 11:26:00,
2013-03-10 07:31:00,44.2,37.5,29.99,SE,128,2.0,8.0,77,0.00,,,0.01,WUHU216DAVISVP2,2013-03-10 11:31:00,
2013-03-10 07:36:00,44.3,37.6,29.99,ESE,111,2.0,7.0,77,0.00,,,0.01,WUHU216DAVISVP2,2013-03-10 11:36:00,
2013-03-10 07:41:00,44.2,37.5,29.99,ESE,102,3.0,7.0,77,0.00,,,0.01,WUHU216DAVISVP2,2013-03-10 11:41:00,
2013-03-10 07:46:00,44.3,37.6,29.99,East,99,5.0,7.0,77,0.00,,,0.01,WUHU216DAVISVP2,2013-03-10 11:46:00,
2013-03-10 07:51:00,44.3,37.6,29.99,East,98,5.0,7.0,77,0.00,,,0.01,WUHU216DAVISVP2,2013-03-10 11:51:00,
2013-03-10 07:56:00,44.5,37.5,29.99,ESE,114,4.0,8.0,76,0.00,,,0.01,WUHU216DAVISVP2,2013-03-10 11:56:00,
2013-03-10 08:01:00,44.7,37.3,29.98,ESE,107,4.0,8.0,75,0.00,,,0.01,WUHU216DAVISVP2,2013-03-10 12:01:00,
2013-03-10 08:06:00,44.9,37.5,29.99,East,96,7.0,8.0,75,0.00,,,0.01,WUHU216DAVISVP2,2013-03-10 12:06:00,
2013-03-10 08:11:00,45.1,37.4,29.99,ESE,121,4.0,8.0,74,0.00,,,0.01,WUHU216DAVISVP2,2013-03-10 12:11:00,
2013-03-10 08:16:00,45.3,37.6,29.99,ESE,111,7.0,10.0,74,0.00,,,0.01,WUHU216DAVISVP2,2013-03-10 12:16:00,
2013-03-10 08:21:00,45.8,37.7,29.99,SE,126,2.0,12.0,73,0.00,,,0.01,WUHU216DAVISVP2,2013-03-10 12:21:00,
2013-03-10 08:26:00,46.1,37.7,29.99,East,101,2.0,12.0,72,0.00,,,0.01,WUHU216DAVISVP2,2013-03-10 12:26:00,
2013-03-10 08:31:00,46.4,37.6,29.99,ESE,119,5.0,12.0,71,0.00,,,0.01,WUHU216DAVISVP2,2013-03-10 12:31:00,
2013-03-10 08:36:00,46.7,37.5,29.99,ESE,103,6.0,12.0,70,0.00,,,0.01,WUHU216DAVISVP2,2013-03-10 12:36:00,
2013-03-10 08:42:00,47.0,37.7,29.98,ESE,115,9.0,12.0,70,0.00,,,0.01,WUHU216DAVISVP2,2013-03-10 12:42:00,
2013-03-10 08:47:00,47.1,37.8,29.98,ESE,102,6.0,12.0,70,0.00,,,0.01,WUHU216DAVISVP2,2013-03-10 12:47:00,
2013-03-10 08:52:00,47.3,37.7,29.98,East,97,10.0,12.0,69,0.00,,,0.01,WUHU216DAVISVP2,2013-03-10 12:52:00,
2013-03-10 08:57:00,47.5,37.9,29.98,ESE,111,5.0,12.0,69,0.00,,,0.01,WUHU216DAVISVP2,2013-03-10 12:57:00,
2013-03-10 09:02:00,47.8,38.2,29.99,SE,124,4.0,11.0,69,0.00,,,0.01,WUHU216DAVISVP2,2013-03-10 13:02:00,
2013-03-10 09:07:00,47.9,37.9,29.99,ESE,107,6.0,11.0,68,0.00,,,0.01,WUHU216DAVISVP2,2013-03-10 13:07:00,
2013-03-10 09:12:00,48.2,38.2,29.98,ESE,117,6.0,12.0,68,0.00,,,0.01,WUHU216DAVISVP2,2013-03-10 13:12:00,
2013-03-10 09:17:00,48.4,38.4,29.98,ESE,111,11.0,12.0,68,0.00,,,0.01,WUHU216DAVISVP2,2013-03-10 13:17:00,
2013-03-10 09:22:00,48.7,38.3,29.98,ESE,107,9.0,14.0,67,0.00,,,0.01,WUHU216DAVISVP2,2013-03-10 13:22:00,
2013-03-10 09:27:00,49.0,38.2,29.98,SE,126,12.0,14.0,66,0.00,,,0.01,WUHU216DAVISVP2,2013-03-10 13:27:00,
2013-03-10 09:32:00,49.1,38.7,29.98,SE,126,6.0,14.0,67,0.00,,,0.01,WUHU216DAVISVP2,2013-03-10 13:32:00,
2013-03-10 09:37:00,49.2,38.8,29.97,ESE,117,4.0,14.0,67,0.00,,,0.01,WUHU216DAVISVP2,2013-03-10 13:37:00,
2013-03-10 09:42:00,49.4,38.6,29.97,ESE,102,8.0,14.0,66,0.00,,,0.01,WUHU216DAVISVP2,2013-03-10 13:42:00,
2013-03-10 09:47:00,49.5,38.7,29.97,ESE,108,9.0,12.0,66,0.00,,,0.01,WUHU216DAVISVP2,2013-03-10 13:47:00,
2013-03-10 09:52:00,49.7,38.8,29.97,SE,136,2.0,12.0,66,0.00,,,0.01,WUHU216DAVISVP2,2013-03-10 13:52:00,
2013-03-10 09:57:00,50.0,39.2,29.97,ESE,106,8.0,12.0,66,0.00,,,0.01,WUHU216DAVISVP2,2013-03-10 13:57:00,
2013-03-10 10:02:00,50.1,39.3,29.96,ESE,114,6.0,12.0,66,0.00,,,0.01,WUHU216DAVISVP2,2013-03-10 14:02:00,
2013-03-10 10:08:00,50.2,38.9,29.96,East,96,6.0,14.0,65,0.00,,,0.01,WUHU216DAVISVP2,2013-03-10 14:08:00,
2013-03-10 10:13:00,50.3,39.1,29.97,SE,142,8.0,14.0,65,0.00,,,0.01,WUHU216DAVISVP2,2013-03-10 14:13:00,
2013-03-10 10:18:00,50.4,39.2,29.97,SE,135,5.0,14.0,65,0.00,,,0.01,WUHU216DAVISVP2,2013-03-10 14:18:00,
2013-03-10 10:23:00,50.4,39.6,29.97,ESE,119,5.0,15.0,66,0.00,,,0.01,WUHU216DAVISVP2,2013-03-10 14:23:00,
2013-03-10 10:28:00,50.4,39.2,29.97,ESE,123,9.0,18.0,65,0.00,,,0.01,WUHU216DAVISVP2,2013-03-10 14:28:00,
2013-03-10 10:33:00,50.4,39.6,29.97,ESE,120,5.0,19.0,66,0.00,,,0.01,WUHU216DAVISVP2,2013-03-10 14:33:00,
2013-03-10 10:38:00,50.5,39.7,29.97,ESE,114,9.0,19.0,66,0.00,,,0.01,WUHU216DAVISVP2,2013-03-10 14:38:00,
2013-03-10 10:43:00,50.6,39.8,29.96,ESE,115,9.0,19.0,66,0.00,,,0.01,WUHU216DAVISVP2,2013-03-10 14:43:00,
2013-03-10 10:48:00,50.7,39.7,29.96,East,101,7.0,19.0,66,0.00,,,0.01,WUHU216DAVISVP2,2013-03-10 14:48:00,
2013-03-10 10:53:00,50.9,40.4,29.95,SE,130,8.0,15.0,67,0.00,,,0.01,WUHU216DAVISVP2,2013-03-10 14:53:00,
2013-03-10 10:55:00,51.3,40.0,29.96,ESE,123,7.0,15.0,65,0.00,,,0.01,WUHU216DAVISVP2,2013-03-10 14:55:00,
2013-03-10 10:58:00,51.2,40.0,29.95,East,96,5.0,15.0,65,0.00,,,0.01,WUHU216DAVISVP2,2013-03-10 14:58:00,
2013-03-10 11:06:00,51.5,39.8,29.97,SE,130,8.0,19.0,64,0.00,,,0.01,WUHU216DAVISVP2,2013-03-10 15:06:00,